Terminal Aerodrome Forecast
Issued by NWS Denver/Boulder, CO

Home | Current Version | Previous Version | Text Only | Print | Product List | Glossary On
Versions: 1 2 3 4 5 6 7 8 9 10 11 12 13 14 15 16 17 18 19 20 21 22 23 24 25 26 27 28 29 30 31 32 33 34 35 36 37 38 39 40 41 42 43 44 45 46 47 48 49 50
153
FTUS45 KBOU 291321 AAA
TAFDEN
TAF AMD
KDEN 291321Z 2913/3018 35011KT 6SM -RA BKN005 OVC040
     FM291400 02013KT P6SM VCSH BKN030 OVC060
     FM291600 04014KT P6SM BKN025 OVC040
     FM291900 02013G22KT P6SM SCT040 BKN100
     FM300100 07008KT P6SM SCT060 SCT100
     FM300400 14008KT P6SM FEW120 SCT220
     FM300700 20011KT P6SM FEW140 BKN220=

USA.gov is the U.S. government's official web portal to all federal, state and local government web resources and services.